Change the Weather History Date:

Saturday, December 18, 2010

  Actual Average Record
Temperature  
Mean Temperature 17 °F 29 °F  
Max Temperature 25 °F 36 °F 59 °F (2002)
Min Temperature 8 °F 22 °F -9 °F (1985)
Degree Days  
Heating Degree Days 48 36  
Month to date heating degree days 792 591  
Since 1 July heating degree days 1750 1692  
Cooling Degree Days 0 0  
Month to date cooling degree days 0 0  
Year to date cooling degree days 1342 983  
Moisture  
Dew Point 11 °F    
Average Humidity 77    
Maximum Humidity 92    
Minimum Humidity 62    
Precipitation  
Precipitation 0.00 in 0.08 in 0.44 in (1957)
Month to date precipitation 0.60 1.55  
Year to date precipitation 35.35 35.62  
Sea Level Pressure  
Sea Level Pressure 30.13 in    
Wind  
Wind Speed 5 mph (West)    
Max Wind Speed 17 mph    
Max Gust Speed 22 mph    
Visibility 7 miles    
Events      
T = Trace of Precipitation, MM = Missing Value Source: NWS Daily Summary

Daily Weather History Graph

Daily Weather History Graph

Search for Another Location

Airport or City:

Trip Planner

Search our weather history database for the weather conditions in past years. The results will help you decide how hot, cold, wet, or windy it might be!

Date:

Astronomy

Dec. 18, 2010 Rise Set
Actual Time 8:05 AM EST 5:23 PM EST
Civil Twilight 7:34 AM EST 5:53 PM EST
Nautical Twilight 7:00 AM EST 6:28 PM EST
Astronomical Twilight 6:27 AM EST 7:01 PM EST
Moon 3:08 PM EST (12/18) 5:26 AM EST (12/18)
Length of Visible Light 10h 19m
Length of Day
9h 17m
Waxing Gibbous, 92% of the Moon is Illuminated
Dec 18
Waxing Gibbous
Dec 21
Full
Dec 27
Last Quarter
Jan 4
New
Jan 12
First Quarter

Hourly Weather History & Observations

Time (EST) Temp. Windchill Dew Point Humidity Pressure Visibility Wind Dir Wind Speed Gust Speed Precip Events Conditions
12:54 AM 10.0 °F 3.6 °F 7.0 °F 87% 30.18 in - West 3.5 mph - N/A   Unknown
1:54 AM 10.9 °F 4.7 °F 7.0 °F 84% 30.19 in 6.0 mi WNW 3.5 mph - N/A   Clear
2:54 AM 10.9 °F 4.7 °F 8.1 °F 88% 30.19 in 5.0 mi West 3.5 mph - N/A   Clear
3:54 AM 9.0 °F 2.4 °F 5.0 °F 84% 30.20 in 5.0 mi West 3.5 mph - N/A   Clear
4:54 AM 9.0 °F - 5.0 °F 84% 30.18 in 1.8 mi Calm Calm - N/A   Clear
5:09 AM 10.4 °F - 6.8 °F 85% 30.15 in 2.0 mi Calm Calm - N/A   Clear
5:30 AM 10.4 °F 2.2 °F 5.0 °F 79% 30.14 in 3.0 mi West 4.6 mph - N/A   Haze
5:54 AM 10.9 °F 4.7 °F 7.0 °F 84% 30.17 in 3.0 mi West 3.5 mph - N/A   Clear
7:54 AM 10.9 °F 4.7 °F 6.1 °F 81% 30.17 in 4.0 mi West 3.5 mph - N/A   Haze
8:54 AM 12.0 °F 5.9 °F 7.0 °F 80% 30.17 in 4.0 mi West 3.5 mph - N/A   Haze
10:54 AM 19.9 °F 11.1 °F 14.0 °F 78% 30.17 in 6.0 mi West 6.9 mph - N/A   Haze
11:54 AM 21.0 °F 10.6 °F 16.0 °F 81% 30.14 in 8.0 mi West 9.2 mph - N/A   Clear
12:54 PM 24.1 °F 12.5 °F 15.1 °F 69% 30.12 in 10.0 mi West 12.7 mph - N/A   Mostly Cloudy
1:54 PM 24.1 °F 11.0 °F 14.0 °F 65% 30.11 in 10.0 mi WNW 16.1 mph - N/A   Scattered Clouds
2:54 PM 24.1 °F 13.7 °F 15.1 °F 69% 30.09 in 10.0 mi West 10.4 mph - N/A   Clear
3:54 PM 25.0 °F 14.8 °F 15.1 °F 66% 30.09 in 10.0 mi West 10.4 mph - N/A   Clear
4:54 PM 24.1 °F 15.2 °F 15.1 °F 69% 30.09 in 10.0 mi West 8.1 mph - N/A   Clear
5:54 PM 23.0 °F 15.8 °F 15.1 °F 72% 30.10 in 10.0 mi WSW 5.8 mph - N/A   Clear
6:54 PM 21.0 °F - 15.1 °F 78% 30.11 in 10.0 mi Calm Calm - N/A   Scattered Clouds
7:03 PM 19.4 °F - 15.8 °F 86% 30.07 in 10.0 mi Calm Calm - N/A   Mostly Cloudy
7:15 PM 21.2 °F - 15.8 °F 80% 30.07 in 9.0 mi Calm Calm - N/A   Scattered Clouds
7:54 PM 19.9 °F - 14.0 °F 78% 30.09 in 8.0 mi Calm Calm - N/A   Clear
8:54 PM 17.1 °F 11.7 °F 12.9 °F 84% 30.08 in 8.0 mi WSW 3.5 mph - N/A   Clear
9:54 PM 17.1 °F - 12.9 °F 84% 30.08 in 6.0 mi Calm Calm - N/A   Clear
10:54 PM 15.1 °F - 12.0 °F 88% 30.08 in 4.0 mi Calm Calm - N/A   Clear
11:54 PM 16.0 °F 8.8 °F 12.9 °F 88% 30.09 in 5.0 mi West 4.6 mph - N/A   Clear